Flag for United Kingdom Weather past 2 weeks in Peterborough, England, United Kingdom

Now
64 °F

Sunny.


Feels Like: 64 °F
Forecast: 45 / 67 °F
Wind: 12 mph from West

Location: Wittering

Current Time: Jun 3, 2015 at 5:08:15 PM

Latest Report: Jun 3, 2015 at 3:50 PM


Visibility: 10 mi

Pressure: 30.21 "Hg

Humidity: 40%

Dew point: 39 °F

Location of PeterboroughLocation

Historic Weather in Peterborough — Graph

°F

Peterborough temperature yesterday

Maximum temperature yesterday: 66 °F (at 1:50 PM)
Minimum temperature yesterday: 50 °F (at 12:50 AM)
Average temperature yesterday: 58 °F

Past Weeks' High & Low Weather Summary

 TemperatureHumidityPressure
High66 °F (May 22, 1:50 PM)100% (May 23, 5:50 AM)30.30 "Hg (May 23, 5:50 AM)
Low39 °F (May 20, 3:50 AM)39% (May 28, 5:50 PM)29.42 "Hg (Jun 2, 2:50 AM)
Average53 °F74%29.97 "Hg
* Reported May 19 3:50 PM — Jun 3 3:50 PM, Peterborough, Weather by CustomWeather, © 2015

Note: Actual official high and low records may vary slightly from our data, if they occured in-between our weather recording intervals... More about our weather records

Advertising

Peterborough weather history for previous 24 hours

 ConditionsComfort  
Time TempWeatherWind HumidityBarometerVisibility
3:50 PM
Wed, Jun 3
64 °FSunny.12 mph40%30.21 "Hg10 mi
2:50 PM61 °FPartly sunny.12 mph52%30.18 "HgN/A
1:50 PM63 °FScattered clouds.15 mph52%30.18 "HgN/A
12:50 PM59 °FPartly sunny.10 mph55%30.15 "HgN/A
11:50 AM59 °FPartly sunny.14 mph59%30.12 "HgN/A
10:50 AM57 °FPartly sunny.14 mph59%30.12 "HgN/A
9:50 AM57 °FScattered clouds.16 mph59%30.07 "HgN/A
8:50 AM57 °FPassing clouds.21 mph63%30.04 "HgN/A
7:50 AM54 °FPassing clouds.20 mph77%30.01 "HgN/A
6:50 AM52 °FOvercast.14 mph82%29.98 "HgN/A
5:50 AM52 °FOvercast.13 mph82%29.95 "HgN/A
4:50 AM50 °FPassing clouds.12 mph88%29.92 "HgN/A
3:50 AM50 °FPassing clouds.13 mph88%29.89 "HgN/A
2:50 AM52 °FPassing clouds.16 mph77%29.86 "HgN/A
1:50 AM52 °FPassing clouds.15 mph77%29.83 "HgN/A
12:50 AM52 °FCool.13 mph77%29.83 "HgN/A
11:50 PM
Tue, Jun 2
52 °FCool.14 mph77%29.80 "HgN/A
10:50 PM54 °FCool.18 mph72%29.77 "HgN/A
9:50 PM54 °FCool.17 mph67%29.74 "HgN/A
8:50 PM57 °FPassing clouds.20 mph59%29.71 "HgN/A
7:50 PM59 °FScattered clouds.23 mph59%29.68 "HgN/A
6:50 PM61 °FPartly sunny.24 mph55%29.65 "HgN/A
5:50 PM63 °FPartly sunny.29 mph49%29.62 "HgN/A
Weather by CustomWeather, © 2015

See weather overviewHow to use our weather pages